Location: Biharia
(46.4333°N, 22.8000°E)
Time: 03:34:02
(UTC+00:00)

Cosmos 494 Rocket - Pass Details

Date: 30 May 2022
Orbit: 742 x 770 km, 74.1° (Epoch: 05 July)

Event Time Altitude Azimuth Distance (km) Brightness Sun altitude
Rises 20:06:04 0° 350° (N) 3,194 8.5 -14.7°
Reaches altitude 10° 20:09:39 10° 15° (NNE) 2,265 7.0 -15.0°
Maximum altitude 20:12:17 14° 47° (NE) 1,998 6.3 -15.3°
Drops below altitude 10° 20:14:56 10° 78° (ENE) 2,259 6.2 -15.5°
Enters shadow 20:16:29 - 92° (E) 2,612 6.4 -15.6°
